Tracking 30157 objects as of 12-Feb-2025
HD Live streaming from Space Station
objects crossing your sky now

STARLINK-4344

Track STARLINK-4344 now!
10-day predictions
STARLINK-4344 is classified as:


NORAD ID: 53072
Int'l Code: 2022-077AF
Perigee: 569.9 km
Apogee: 570.4 km
Inclination: 97.7 °
Period: 95.9 minutes
Semi major axis: 6941 km
RCS: Unknown
Launch date: July 11, 2022
Source: United States (US)
Launch site: AIR FORCE WESTERN TEST RANGE (AFWTR)
Your satellite tracking list
Your tracking list is empty




NASA's NSSDC Master Catalog

Two Line Element Set (TLE):
1 53072U 22077AF  25042.94697518 -.00000380  00000-0 -24968-4 0  9993
2 53072  97.6540 226.3686 0000315 217.3275 142.7927 15.01258157142294
Source of the keplerian elements: AFSPC